Organisateur, détaillez votre épreuve !!!
Inscrivez-vous en ligne !!!
INSCRIVEZ VOUS ET PAYEZ EN LIGNE Engagé(e)s*
Nom de la course Lieu Insc Date Officiel Internet
Rde Nocturne des Ponts Bleus Martigues Sam 20/07
Trail de Dormillouse St Jean Montclar Dim 18/08
Eco-Ronde Médiévale Miramas le Vieux Dim 25/08
10 Km François BLANC Salon de Provence Dim 01/09
Tour de l'Olivier Istres Dim 08/09
Volx en Course Volx Dim 15/09
La Gambade Escalaise L.Escale Dim 29/09
Officiel = MAJ manuelle, courrier+web - Internet = MAJ automatique, dès constatation des inscriptions web

Nous rappelons aux licencié(e)s FFTRI, FFCO ou FFPM que vos licences ne sont plus acceptées par la FFA depuis le 1er Janvier 2019, malgré les dernières annotations rajoutées sur celles-ci. Il est donc expressément recommandé de présenter un certificat médical d’absence de contre-indication à la pratique du sport en compétition ou de l’Athlétisme en compétition ou de la course à pied en compétition, datant de moins d'un an à la date de la compétition.
Merci pour votre compréhension !!!

Accueil Courir en France
Pour obtenir un devis, cliquez ici !!!

Classement Général au Scratch

Utilisez ce formulaire pour calculer votre vitesse
Les décimales, doivent toujours être séparées par un POINT

Distance

Heures

Minutes

Secondes

Km/h

Imprimez votre diplôme !!!
Epreuve chronométrée par courirenfrance
Toute reproduction intégrale ou partielle sans le consentement préalable de courirenfrance serait illicite et constituerait une contrefaçon sanctionnée par la loi en vigueur propre au code de la propriété intellectuelle.
Classement des 7.8 Km
Région ou Ville Distance Nom de l'Epreuve Date Rentrants
Istres - [13] 10.7 Km 20e Tour de l.Olivier 11/09/2016 988
Pl Nom Prénom Doss. Cat. Club Temps
601 VIDALE MAX 968 M3M 41  SALIN DE GIRAUD 1:01:17
602 PANZANI LUDOVIC 827 SEM 189  MIRAMAS 1:01:18
603 BILLARD DIDIER 66 M1M 158  A VOS BASKETS ISTRES 1:01:19
604 TORRES PHILIPPE 757 SEM 190  ISTRES 1:01:22
605 KHALIL MERATI 356 ESM 14  ISTRES 1:01:23
606 CHATZIMICHALIS REGIS 1112 M2M 93  MOURIES 1:01:27
607 ATTIA AYEDRE NORDINE 716 M2M 94  ISTRES 1:01:29
608 PELLEGRIN JEAN FREDERIC 491 M1M 159  JOGG CLUB MARTIGUES 1:01:30
609 DUBOIS COLETTE 210 M2F 20  FOS OLYMPIQUE CLUB 1:01:33
610 DUEZ PHILIPPE 687 M2M 95  VJA 1:01:37
611 LINARES SANDRINE 775 SEF 29  ISTRES 1:01:42
612 ARNAUD ANICK 23 M2F 21  FOULEE DU CHASSELAS 1:01:44
613 TERRAS ALAIN 889 M3M 42  A VOS BASKETS ISTRES 1:01:45
614 ESCOBAR JEAN PHILIPPE 226 M2M 96  FOULEE DU CHASSELAS 1:01:47
615 FERNANDEZ CAROLINE 702 SEF 30  GEANT CASINO ISTRES 1:01:48
616 CORTES ANTOINE 699 SEM 191  GEANT CASINO ISTRES 1:01:49
617 FOURQUIE JEAN-LUC 253 M3M 43  A VOS BASKETS ISTRES 1:01:50
618 AUFRERE CLAUDE 930 M3M 44  BELCODENE 1:01:51
619 SOUDEILLE AMANDINE 771 ESF 5  ISTRES 1:01:53
620 RUEDA BERNADETTE 561 M2F 22  MARTIGUES 1:01:54
621 BARRAL JEAN-MARC 41 M1M 160  CARRY LE ROUET 1:01:55
622 STACHO FREDERIC 596 SEM 192  FOS SUR MER 1:01:57
623 ESBELIN PEDRONA CAROLE 224 M1F 30  ISTRES 1:01:58
624 TSOPANIS THOMAS 805 M1M 161  DOCKER DE FOS 1:01:59
625 APOUX FLAVIEN 17 M2M 97  MARTIGUES 1:02:00
626 GOMEL PHILIPPE 879 M1M 162  PORT DE BOUC 1:02:03
627 ESCALLIER DANIEL 225 M2M 98  SLC PORT DE BOUC 1:02:05
628 FALCO AMELIE 231 SEF 31  ISTRES 1:02:06
629 COUSTELLIEN GILLES 898 SEM 193  ST MITRE LES REMPARTS 1:02:07
630 CADILHAC NATHALIA 105 SEF 32  CRAYSSAC 46 1:02:08
631 HOUZE DIDIER 870 M1M 163  ISTRES 1:02:10
632 DUPUY BENJAMIN 215 SEM 194  LE PUY ST REPARADE 1:02:11
633 AURAN THIERRY 29 M1M 164  MIRAMAS 1:02:12
634 DISTINGUIN BERENGERE 1160 SEF 33  FOULEE PELISSANAISE 1:02:13
635 CHINH BARBARA 143 M1F 31  ST MITRE LES REMPARTS 1:02:14
636 BRANDY LOIC 93 M1M 165  ISTRES 1:02:19
637 QUERALT GEORGES 526 M3M 45  A VOS BASKETS ISTRES 1:02:20
638 HUSTE YVES 894 M1M 166  ISTRES 1:02:23
639 BRENEY SYLVAIN 966 M1M 167  ISTRES 1:02:24
640 MORINI NATHALIE 865 SEF 34  MARTIGUES 1:02:26
641 MATET PATRICE 967 M1M 168  ISTRES 1:02:27
642 GRIFFET FREDERIQUE 299 M1F 32  ROGNAC 1:02:29
643 HASSANI NADJET 323 M1F 33  ACRA ARLES 1:02:30
644 FERNANDEZ REMI 703 SEM 195  GEANT CASINO ISTRES 1:02:34
645 BOURSEAUX XAVIER 89 SEM 196  PLAN DE CUQUES 1:02:36
646 PORTE CHANIEL FABIENNE 517 M2F 23  A VOS BASKETS ISTRES 1:02:41
647 AMBLARD SEVERINE 9 M1F 34  MARTIGUES 1:02:42
648 CORTEMBERT MARYVONNE 162 M1F 35  SC MARIGNANAIS 1:02:43
649 DELGRANGE EMMANUELLE 829 SEF 35  MARIGNANE 1:02:44
650 BOULOT PIERRE BERNARD 882 M1M 169  LUNEL 1:02:45
651 GRANIER CLAUDE 814 M3M 46  ISTRES 1:02:49
652 DUBUS BRUNO 211 M2M 99  MARIGNANE 1:02:50
653 ALCANTARA DAMIEN 6 SEM 197  MARSEILLE 1:02:52
654 TERRIER STEPHANE 754 M1M 170  ISTRES 1:02:55
655 TURRUELLA MARINE 626 JUF 2  CHRONO LIBRE 1:02:56
656 ROUELLE LIONEL 951 M2M 100  CHRONO LIBRE 1:02:57
657 MARTINO BERNARD 668 M1M 171  BOULANGERIE ANGE 1:02:59
658 POLO CHRISTOPHE 511 M2M 101  A VOS BASKETS ISTRES 1:03:00
659 FERRER VALLS SYLVIE 242 M1F 36  ISTRES 1:03:02
660 BEDOU KAREN 734 SEF 36  ISTRES 1:03:03
661 HEYMES NATHALIE 690 M1F 37  VJA 1:03:05
662 BOMPARD THIERRY 76 M1M 172  ENSUES LA REDONNE 1:03:06
663 AUBERT JEREMIE 25 SEM 198  ISTRES 1:03:07
664 POLACSEK JEAN FRANCOIS 832 SEM 199  MARSEILLE 1:03:08
665 GERMAIN VINCENT 277 SEM 200  MIRAMAS 1:03:12
666 MESBAH ZACHARIA 817 CAM 8  ISTRES 1:03:14
667 IMBERTESCHE NATHALIE 706 M2F 24  GEANT CASINO ISTRES 1:03:15
668 FRAISSINET RAYMOND 962 M3M 47  ACRA ARLES 1:03:17
669 GUERIN PATRICK 1151 M1M 173  ISTRES 1:03:24
670 BOURDON BRIGITTE 87 M2F 25  MARTIGUES 1:03:27
671 MONNIER SABINE 447 M2F 26  FOS OLYMPIQUE CLUB 1:03:28
672 AMALRAJ GLASTEN 676 SEM 201  LECLERC ISTRES 1:03:31
673 DEBUCHY STEPHANE 184 M2M 102  ISTRES 1:03:32
674 BADILLER CHRISTOPHE 37 M1M 174  AIX EN PROVENCE 1:03:36
675 REAL MARTINE 1157 M1F 38  SALON TRIATHLON 1:03:42
676 POMMIER ISABELLE 512 M1F 39  SC MARIGNANAIS 1:03:44
677 DOS SANTOS DAVID 205 M1M 175  ISTRES 1:03:46
678 ESCUDIER ERIC 819 M1M 176  ISTRES 1:03:48
679 GALIOTO NATHALIE 260 M1F 40  EYGUIERES 1:03:49
680 OLIVERO PASCAL 1120 SEM 202  MARTIGUES 1:03:53
681 FENOLL SANDRINE 239 M1F 41  A VOS BASKETS ISTRES 1:03:59
682 ZANTE STEPHANIE 659 M1F 42  A VOS BASKETS ISTRES 1:04:00
683 BRIDOUX FLORIAN 98 SEM 203  SIX FOURS LES PLAGES 1:04:02
684 URVOY GWEN 893 M1F 43  RUGBY FEMININ 1:04:04
685 PEREZ NICOLAS 697 SEM 204  RUGBY FEMININ 1:04:05
686 PELEGRIN ANDRE 489 M2M 103  MONTPELLIER 1:04:07
687 MERISSE SAMUEL 437 SEM 205  SALON DE PROVENCE 1:04:08
688 LARIVIERE DAVID 863 M1M 177  ISTRES 1:04:09
689 SABAINI MARTINE 565 M2F 27  TEAM TONTA TRAIL 1:04:10
690 LODICO DELPHINE 396 SEF 37  MARTIGUES 1:04:11
691 VANPARYS PATRICK 789 M2M 104  AIRE SUR LA LYS 62 1:04:15
692 DOL FLORENT 1098 SEM 206  SALON DE PROVENCE 1:04:16
693 GONZALEZ GUILLAUME 294 SEM 207  ISTRES 1:04:17
694 CARVIN VALERIE 686 M1F 44  VJA 1:04:21
695 GALLEGO MICHEL 261 M2M 105  CHRONO LIBRE 1:04:21
696 BENOIT LAURENCE 53 M2F 28  SC MARIGNANAIS 1:04:23
697 BION OLIVIER 67 M1M 178  MARSEILLE 1:04:24
698 BREUX CHANTAL 97 M3F 1  SLC MARTIGUES 1:04:25
699 SCHIRKOFF NIKITA 579 M3M 48  ENTRESSEN 1:04:26
700 SZALKO DIMITRI 751 SEM 208  25E RGA AVIATION 1:04:29
701 LATIL CAMILLE 927 CAF 3  SALON DE PROVENCE 1:04:30
702 BOUCHET DAVID 1095 SEM 209  FOS OLYMPIC CLUB 1:04:32
703 GINESTE ERIC 284 M1M 179  ST MITRE LES REMPARTS 1:04:33
704 PARTOUCHE MARC 926 M4M 4  ISTRES 1:04:36
705 COULOMB NICOLAS 166 SEM 210  COURIR A VELAUX 1:04:37
706 NERANI VIRGINIE 875 SEF 38  FOS OLYMPIQUE CLUB 1:04:39
707 GOMEZ MELISSA 731 SEF 39  ISTRES 1:04:40
708 DOZON STEPHANIE 208 SEF 40  MARTIGUES 1:04:41
709 DROUARD GAELLE 954 SEF 41  MIRAMAS 1:04:42
710 PIERRE EMMANUELLE 502 SEF 42  FOS OLYMPIQUE CLUB 1:04:44
711 GUIRADO CHARLOTTE 667 SEF 43  BOULANGERIE ANGE 1:04:46
712 HAPPE JEAN-LUC 321 M2M 106  ACRA ARLES 1:04:47
713 LE DUC YANN 377 M1M 180  COURIR A SAUSSET 1:04:49
714 GUILLEN 793 M1M 181  ISTRES 1:04:52
715 FOUQUE CHRISTINE 251 M2F 29  MARSEILLE 1:04:58
716 GASC CRISTIAN 799 CAM 9  ISTRES 1:05:00
717 DACHER ELODIE 171 SEF 44  ROUSSET 1:05:01
718 BOUCHARD STEPHANIE 753 M1F 45  ISTRES 1:05:04
719 LOGET SEBASTIEN 399 SEM 211  VITROLLES 1:05:07
720 GUILHAUME GERALDINE 862 SEF 45  ENSUES LA REDONNE 1:05:10
721 JOLIVEL STEVEN 752 SEM 212  ISTRES 1:05:12
722 VERDIER MARC 854 SEM 213  GMPA TEAM 1:05:14
723 CALDIN NATACHA 109 M1F 46  ISTRES 1:05:16
724 GHIGI CHRISTOPHE 280 SEM 214  ISTRES 1:05:19
725 SEILLER GABRIELLE 583 M5F 1  COURIR A SAUSSET 1:05:20
726 PONZO GEORGES 516 M3M 49  ISTRES 1:05:22
727 CAPUS SERGE 115 M2M 107  COURIR A SAUSSET 1:05:24
728 DAMBLON GEORGES 173 M3M 50  COURIR A SAUSSET 1:05:25
729 PAEPOETOATA TILTAN 851 SEM 215  GMPA TEAM 1:05:26
730 BAYEUX CLARA 695 JUF 3  RUGBY FEMININ 1:05:29
731 GUERIN MARC 307 M3M 51  CSP CG 13 1:05:30
732 ISNARD CHRISTIANE 336 M3F 2  ST MITRE LES REMPARTS 1:05:36
733 SATTA GUILLAUME 573 ESM 15  MARTIGUES 1:05:39
734 AUTRAND-PACO VALERIE 30 M2F 30  JOGG CLUB MARTIGUES 1:05:40
735 JARRE LAURE 343 M1F 47  ISTRES 1:05:41
736 SCOTTO BRUNO 581 M2M 108  ISTRES 1:05:44
737 MONTEGNETTI MARION 991 SEF 46  PORT ST LOUIS DU R 1:05:46
738 FLATTET CELINE 246 SEF 47  ISTRES 1:05:47
739 HUBERT CHRISTOPHE 950 M1M 182  FOS OLYMPIC CLUB 1:05:49
740 ODORICO MAURICE 940 M3M 52  MARTIGUES 1:05:51
741 LEMAIRE BERNARD 388 M3M 53  ASP MARTIGUES 1:05:52
742 GALLO GERARD 265 M1M 183  ISTRES 1:05:57
743 JULIEN OLIVIER 353 M2M 109  MIRAMAS 1:05:59
744 BESSAHRAOUI LAID 63 M2M 110  A VOS BASKETS ISTRES 1:06:07
745 CHARLES SYLVIE 138 M3F 3  FOULEE SALONAISE 1:06:10
746 DUMONTIER LAURENT 1159 SEM 216  MONTELIMAR 1:06:13
747 CHANDRE DELPHINE 1084 M1F 48  EYGUIERES 1:06:15
748 TORRES AURELIE 755 SEF 48  ISTRES 1:06:17
749 ZOUAOUI ABDELLAH 953 M1M 184  ISTRES 1:06:25
750 GAFFET PATRICIA 665 M1F 49  BOULANGERIE ANGE 1:06:28
751 SAULNIER SEVERINE 792 M1F 50  ISTRES 1:06:29
752 ROS CELINE 555 M1F 51  ATHLETIC CLUB SALONAIS 1:06:31
753 GILLARD FABIEN 983 SEM 217  ISTRES 1:06:32
754 SIGONNEAU DIDIER 585 M2M 111  JOGG CLUB MARTIGUES 1:06:38
755 MONTI STEPHANE 450 M1M 185  MIRAMAS 1:06:43
756 MAILHES SOLANGE 413 M2F 31  A VOS BASKETS ISTRES 1:06:45
757 EISCHEN COLINE 219 ESF 6  A VOS BASKETS ISTRES 1:06:47
758 DELELIS EDWIGE 700 M1F 52  GEANT CASINO ISTRES 1:06:48
759 CARDONA VANESSA 117 SEF 49  FOS OLYMPIQUE CLUB 1:06:51
760 NGUYEN LAURA 469 SEF 50  VELAUX 1:06:53
761 DOMINGUEZ ANDRES 203 M2M 112  VARAGE 1:06:55
762 GODIN GERARD 290 M3M 54  A VOS BASKETS ISTRES 1:07:03
763 DESCOTTE DAVID 191 SEM 218  VELAUX 1:07:04
764 RUIZ OLIVIER 772 M1M 186  ISTRES 1:07:06
765 LOZIER MICKAEL 405 SEM 219  ISTRES 1:07:07
766 CONSTANTIN CAROLE 945 M2F 32  ACRA ARLES 1:07:08
767 CLEMENT GYPSY 679 M1F 53  LECLERC ISTRES 1:07:10
768 PEREZ NATHALIE 496 M1F 54  A VOS BASKETS ISTRES 1:07:12
769 LEFEVRE FREDERIC 939 M2M 113  FOS SUR MER 1:07:15
770 BENCHENAFI MARC 735 M2M 114  ISTRES 1:07:16
771 COULON CEDRIC 167 SEM 220  TTBI 1:07:18
772 JORE DELPHINE 707 SEF 51  GEANT CASINO ISTRES 1:07:19
773 DROUILHET SYLVIE 1166 M1F 55  SALON DE PROVENCE 1:07:21
774 MARGUART SEVERINE 1161 F -  INDIVIDUELLE 1:07:21
775 ROUX FREDERIC 973 M1M 187  ENSUES LA REDONNE 1:07:24
776 LE CAMUS OLIVIER 376 M2M 115  GRANS 1:07:26
777 STEPANIAN LUCILE 600 M1F 56   1:07:29
778 ANDREO DANIEL 12 M2M 116  FOS SUR MER 1:07:30
779 MENET DOMINIQUE 1089 M2M 117  ISTRES 1:07:32
780 HOURDIN GWENAELLE 860 M1F 57  ISTRES 1:07:33
781 MOREAU MARINE 1158 SEF 52  ISTRES 1:07:37
782 VIDALI SERGE 948 M2M 118  ROUSSET 1:07:39
783 VAN SASSENBROUK 1083 SEM 221  BOUILLARGUES 1:07:42
784 FARACO DAMIEN 1099 SEM 222  A VOS BASKETS ISTRES 1:07:44
785 THEVOT PATRICK 821 M3M 55  ISTRES 1:07:46
786 BAROUDI MOURAD 40 M2M 119  MIRAMAS 1:07:48
787 LE TREUT SYLVIE 382 M2F 33  A VOS BASKETS ISTRES 1:07:49
788 MIANNAY VINCENT 439 M1M 188  MARTIGUES 1:07:51
789 MATTEI SEVERINE 431 M1F 58  A NOUS LA VICTOIRE 1:07:57
790 HUBERT MYRIAM 1000 M1F 59  FOS OLYMPIC CLUB 1:07:59
791 ANSELMI STEPHANE 15 M1M 189  MIRAMAS 1:08:00
792 HUSS THIERRY 333 M2M 120  COURIR A SAUSSET 1:08:05
793 JIMENEZ SARAI 773 M1F 60  ENTRESSEN 1:08:10
794 INCONNU 864 -   1:08:13
795 ADSUAR SEBASTIEN 4 SEM 223  PORT DE BOUC 1:08:15
796 MISSLIN LUC 1105 M2M 121  CARRY 5 1:08:16
797 PAYET AUDREY 487 SEF 53  ISTRES 1:08:18
798 CHARDIN JEAN CHRISTOPHE 137 SEM 224  SALON DE PROVENCE 1:08:20
799 GAUTIER MICHEL 271 M2M 122  A VOS BASKETS ISTRES 1:08:21
800 DEGRANGE ALICIA 982 CAF 4  MARTIGUES SPORT ATHLE 1:08:23
801 COLLU EMILIE 152 SEF 54  PELISSANNE 1:08:24
802 CLERMONT SYLVIE 1164 M2F 34  ACRA ARLES 1:08:29
803 DUPLAN NICOLAS 214 M1M 190  MARTIGUES 1:08:32
804 BOLDRINI YVAN 75 M3M 56  ACRA ARLES 1:08:33
805 GUTHMANN MARINE 316 SEF 55  MARSEILLE 1:08:37
806 DALAT JEAN PIERRE 890 M2M 123  ISTRES 1:08:40
807 LEPAGE OLIVIER 390 M1M 191  FOS SUR MER 1:08:41
808 SCHIAVON CEDRIC 578 SEM 225  A VOS BASKETS ISTRES 1:08:49
809 DESSAUD SYBILLE 711 M1F 61  SPORT 2000 1:08:52
810 MESSAGE SYLVIE 802 SEF 56  ISTRES 1:08:55
811 BEATRIX PHILIPPE 992 M2M 124  AC ST REMY 1:08:59
812 VANDOORSSELAERE GHISLAINE 637 M2F 35  MANDUEL MARATHON 1:09:02
813 LOFFREDO ISABELLE 398 M2F 36  CHRONO LIBRE 1:09:06
814 FULACHIER STEPHANIE 256 M1F 62  ENTRESSEN 1:09:21
815 FULACHIER DAVID 255 M1M 192  ENTRESSEN 1:09:22
816 WRIGHT ANDREW 656 M1M 193  CHUMBAWUMBA67 1:09:24
817 MUNUERA VALERIE 460 M1F 63  FRONTIGNAN 34 1:09:26
818 NEYRON SYLVIE 468 M1F 64  FOS SUR MER 1:09:28
819 RUEDA RICHARD 562 M3M 57  MARTIGUES 1:09:29
820 BOI PATRICK 715 M2M 125  CIQ TRIGANCE 1:09:33
821 WILD ANNE 654 M1F 65  EYGUIERES 1:09:40
822 VERRIERE MAUD 647 SEF 57  JOGG CLUB MARTIGUES 1:09:42
823 LAGUERRE DELPHINE 362 M1F 66  ISTRES 1:09:47
824 BOREL JEROME 941 SEM 226  FOS SUR MER 1:09:50
825 SANNA MICHEL 861 M3M 58  ISTRES 1:09:54
826 TORVONI CECILE 619 M2F 37  A VOS BASKETS ISTRES 1:10:07
827 SLIMANI FAIZA 591 M2F 38  A VOS BASKETS ISTRES 1:10:10
828 BORG ALISON 831 SEM 227  A VOS BASKETS ISTRES 1:10:11
829 DHONT SANDRINE 194 SEF 58  ISTRES SPORT ATHLE 1:10:13
830 ATCHIE GILLES 907 M2M 126  MPT ISTRES 1:10:14
831 CERVILLA REMI 664 SEM 228  BOULANGERIE ANGE 1:10:15
832 LACKER PIERRE 722 M1M 194  ISTRES 1:10:16
833 GUEDJ BERNARD 946 M3M 59  MARSEILLE 1:10:22
834 PASSERAUD LAURIE 873 SEF 59  ST CHAMAS 1:10:23
835 LEBRUN CORINNE 384 M2F 39  ROUSSET 1:10:27
836 FERNANDEZ MARIE 688 M2F 40  VJA 1:10:31
837 OVTCHINNIKOV SVETLANA 479 M2F 41  A VOS BASKETS ISTRES 1:10:35
838 SILVERIO LIANO 586 M3M 60  FOS OLYMPIQUE CLUB 1:10:40
839 BODDELE KENNETH 73 SEM 229  ISTRES 1:10:41
840 GLEBOCKI ANNE ISABELLE 289 SEF 60  ISTRES 1:10:43
841 RANDON MARC 530 M1M 195  MARTIGUES 1:10:44
842 SAYAS AURORE 576 SEF 61  VILLENEUVE LES AV 1:10:45
843 CARRENO CLEMENTINE 123 SEF 62  ISTRES 1:10:48
844 AMERY XAVIER 1155 SEM 230  SALON DE PROVENCE 1:10:53
845 BLUER MOIRA 72 M2F 42  LYONDELL SPORT LOISIR 1:10:55
846 GRUNINGER ROBERT 303 M5M 1  FOULEE SALONAISE 1:10:57
847 POTHIER VIRGINIE 518 M1F 67  JOGG CLUB MARTIGUES 1:10:59
848 MOTTE JULIE 457 SEF 63  ISTRES 1:11:05
849 MURA LYDIA 733 M1F 68  ISTRES 1:11:10
850 CERVERA MARLENE 134 M1F 69  FOS OLYMPIQUE CLUB 1:11:15
851 NAVARRO FABRICE 841 M1M 196  GMPA TEAM 1:11:19
852 FARFOUILLON SONIA 235 M1F 70  MARTIGUES 1:11:22
853 COUIX FLORIANE 1085 SEF 64  ENSUES LA REDONNE 1:11:27
854 VANDOORSSELAERE CHRISTIAN 636 M2M 127  ISTRES 1:11:34
855 INNESTI BERNARD 335 M2M 128  MARSEILLE 1:11:37
856 SARRET DELPHINE 572 SEF 65  ST CHAMAS 1:11:38
857 BALDACCHINO SABINE 728 SEF 66  ISTRES 1:11:40
858 ORSI ISABELLE 743 M1F 71  FOS SUR MER 1:11:42
859 MASMEJEAN REGINE 425 M2F 43  ISTRES 1:11:44
860 EDLER EMILIE 838 SEF 67  A VOS BASKETS ISTRES 1:11:45
861 PATASSU MARIE FRANCOISE 1087 F -  MARTIGUES 1:11:48
862 HUGUES THIERRY 332 M2M 129  A VOS BASKETS ISTRES 1:11:56
863 CASANO LEONARD 130 M2M 130  PORT DE BOUC 1:11:58
864 JACQUES LAURE 809 SEF 68  ISTRES 1:12:10
865 MESSANA ISABELLE 964 SEF 69  PORT DE BOUC 1:12:11
866 CASSORLA CELINE 794 SEF 70  ENTRESSEN 1:12:13
867 LAURENT MELISSANDE 840 SEF 71  A VOS BASKETS ISTRES 1:12:14
868 RAMI VINCENT 1103 SEM 231  AIX EN PROVENCE 1:12:20
869 LAUGER CHRISTELLE 843 M1F 72  GMPA TEAM 1:12:24
870 ABETEL YANNICK 764 SEM 232  POMPIERS ISTRES 1:12:26
871 POUPLAN CATHERINE 920 SEF 72  MARTIGUES 1:12:27
872 CULMINIQUE OLIVIER 921 M1M 197  MARTIGUES 1:12:29
873 TECHENE FABIENNE 603 SEF 73  MARSEILLE 1:12:54
874 LOPEZ FABIENNE 401 M1F 73  ISTRES 1:12:56
875 PHILIPPE JOEL 717 M2M 131  CIQ TRIGANCE 1:12:59
876 TRON JEAN-PIERRE 624 M2M 132  ISTRES 1:13:22
877 BOVERO SYLVIE 90 M2F 44  FOS SUR MER 1:13:26
878 MOHAMED AURELIE 732 SEF 74  MOURIES 1:13:28
879 MAUVE EMELINE 432 ESF 7  MARSEILLE 1:13:30
880 DAVID ISABELLE 177 M2F 45  A VOS BASKETS ISTRES 1:13:31
881 BOTCAZOU PIERRETTE 79 M2F 46  A VOS BASKETS ISTRES 1:13:34
882 CLEMENT EVA 876 SEF 75  FOS OLYMPIQUE CLUB 1:13:35
883 PICOT MAXIME 874 SEM 233  ISTRES 1:13:36
884 JAUMIER CARINE 345 M1F 74  ISTRES 1:13:39
885 PUCHADES PATRICK 524 M2M 133  JOGG CLUB MARTIGUES 1:13:42
886 BARBE MURIEL 698 M1F 75  GEANT CASINO ISTRES 1:13:44
887 ROUX MANUELA 708 M1F 76  GEANT CASINO ISTRES 1:13:45
888 NACELLE MAURICE 461 M3M 61  SPORT EVENEMENTS 1:13:49
889 DAURY LISA 176 CAF 5  ISTRES 1:13:50
890 FALIP NATHALIE 232 M1F 77  JOGG CLUB MARTIGUES 1:13:52
891 OLIVERAS JEREMIE 475 SEM 234  MIRAMAS 1:13:55
892 BIAGONI MARC 996 M2M 134  ISTRES 1:13:56
893 MESSANA DIEGO 918 SEM 235  PORT DE BOUC 1:14:03
894 MORATA DIDIER 451 M3M 62  SLC MARTIGUES 1:14:15
895 BRUCKER PATRICIA 100 M1F 78  ISTRES 1:14:21
896 LUCCHINI SABRINA 406 SEF 76  ISTRES 1:14:24
897 RODRIGUEZ DENIS 999 M2M 135  VO3 MAX PCE TRIATH 1:14:26
898 SANCHEZ ROBIN 570 SEM 236  LA BANDE A BRUNO 1:14:33
899 COSQUER ALEXANDRA 163 M1F 79  CHRONO LIBRE 1:14:40
900 NERANI CELINE 942 SEF 77  FOS SUR MER 1:14:47
P 1 - P 2 - P 3 - P 4
 Recherchez un Nom, un Club, une catégorie ou un N° de Dossard :    

Vous disposez d'un droit d'accès, de modification, de rectification et de suppression des données qui vous concernent (art. 34 de la loi "Informatiques et libertés du 6 janvier 1978). Pour l'exercer, adressez vous à alain
 
Copyright © 1999-2019 Courir en France
Tous droits Réservés